Change the Weather History Date:

Tuesday, October 23, 2012

  Actual Average Record
Temperature  
Mean Temperature 43 °F 41 °F  
Max Temperature 53 °F 53 °F 73 °F (2003)
Min Temperature 32 °F 28 °F 8 °F (1984)
Degree Days  
Heating Degree Days 22 24  
Month to date heating degree days 429 463  
Since 1 July heating degree days 651 849  
Cooling Degree Days 0 0  
Month to date cooling degree days 0 0  
Year to date cooling degree days 419 186  
Moisture  
Dew Point 29 °F    
Average Humidity 65    
Maximum Humidity 85    
Minimum Humidity 44    
Precipitation  
Precipitation T in 0.02 in 0.25 in (1975)
Month to date precipitation 0.16 0.59  
Year to date precipitation 4.03 8.11  
Sea Level Pressure  
Sea Level Pressure 29.74 in    
Wind  
Wind Speed 14 mph (WSW)    
Max Wind Speed 33 mph    
Max Gust Speed 40 mph    
Visibility 10 miles    
Events Rain    
T = Trace of Precipitation, MM = Missing Value Source: NWS Daily Summary

Daily Weather History Graph

Daily Weather History Graph

Search for Another Location

Airport or City:

Trip Planner

Search our weather history database for the weather conditions in past years. The results will help you decide how hot, cold, wet, or windy it might be!

Date:

Astronomy

Oct. 23, 2012 Rise Set
Actual Time 7:30 AM MDT 6:14 PM MDT
Civil Twilight 7:02 AM MDT 6:42 PM MDT
Nautical Twilight 6:29 AM MDT 7:15 PM MDT
Astronomical Twilight 5:57 AM MDT 7:47 PM MDT
Moon 3:04 PM MDT (10/23) 1:20 AM MDT (10/23)
Length of Visible Light 11h 40m
Length of Day
10h 43m
Waxing Gibbous, 67% of the Moon is Illuminated
Oct 23
Waxing Gibbous
Oct 29
Full
Nov 6
Last Quarter
Nov 13
New
Nov 20
First Quarter

Hourly Weather History & Observations

Time (MDT) Temp. Windchill Dew Point Humidity Pressure Visibility Wind Dir Wind Speed Gust Speed Precip Events Conditions
12:53 AM 52.0 °F - 30.9 °F 45% 29.51 in 10.0 mi SSW 18.4 mph 26.5 mph N/A   Clear
1:53 AM 52.0 °F - 30.9 °F 45% 29.51 in 10.0 mi SSW 23.0 mph 31.1 mph 0.00 in Rain Light Rain
2:53 AM 53.1 °F - 30.0 °F 41% 29.48 in 10.0 mi SSW 26.5 mph 35.7 mph 0.00 in   Overcast
3:53 AM 51.1 °F - 30.0 °F 44% 29.49 in 10.0 mi SW 19.6 mph 29.9 mph N/A   Clear
4:53 AM 44.1 °F 37.7 °F 34.0 °F 68% 29.55 in 10.0 mi WNW 12.7 mph - N/A   Clear
5:53 AM 41.0 °F 35.8 °F 34.0 °F 76% 29.59 in 10.0 mi WSW 8.1 mph - N/A   Partly Cloudy
6:53 AM 37.9 °F 35.5 °F 33.1 °F 83% 29.62 in 10.0 mi South 3.5 mph - N/A   Clear
7:53 AM 39.9 °F 33.4 °F 35.1 °F 83% 29.63 in 10.0 mi West 10.4 mph - N/A   Mostly Cloudy
8:53 AM 41.0 °F 35.2 °F 36.0 °F 82% 29.69 in 10.0 mi WSW 9.2 mph - 0.00 in   Partly Cloudy
9:29 AM 42.8 °F 34.8 °F 33.8 °F 70% 29.83 in 10.0 mi West 17.3 mph 24.2 mph N/A   Mostly Cloudy
9:53 AM 41.0 °F 32.2 °F 34.0 °F 76% 29.69 in 10.0 mi West 18.4 mph - N/A   Overcast
10:13 AM 39.2 °F 29.8 °F 32.0 °F 75% 29.84 in 10.0 mi West 18.4 mph 25.3 mph N/A   Partly Cloudy
11:53 AM 45.0 °F 36.0 °F 30.9 °F 58% 29.69 in 10.0 mi West 25.3 mph 32.2 mph N/A   Scattered Clouds
12:53 PM 42.1 °F 31.7 °F 25.0 °F 51% 29.74 in 10.0 mi West 27.6 mph 39.1 mph N/A   Partly Cloudy
1:53 PM 39.9 °F 29.0 °F 23.0 °F 51% 29.75 in 10.0 mi West 26.5 mph 33.4 mph N/A   Clear
2:53 PM 41.0 °F 31.9 °F 21.9 °F 47% 29.74 in 10.0 mi West 19.6 mph 31.1 mph N/A   Clear
3:53 PM 39.9 °F 30.0 °F 21.0 °F 47% 29.77 in 10.0 mi West 21.9 mph 26.5 mph N/A   Scattered Clouds
4:53 PM 37.0 °F 26.7 °F 24.1 °F 59% 29.86 in 10.0 mi West 19.6 mph - N/A   Mostly Cloudy
5:53 PM 35.1 °F 27.4 °F 26.1 °F 70% 29.90 in 10.0 mi WNW 10.4 mph - N/A   Overcast
6:53 PM 34.0 °F 28.0 °F 26.1 °F 73% 29.94 in 10.0 mi West 6.9 mph - N/A   Overcast
7:53 PM 33.1 °F 30.0 °F 26.1 °F 75% 29.92 in 10.0 mi West 3.5 mph - N/A   Overcast
8:53 PM 33.1 °F 30.0 °F 26.1 °F 75% 29.92 in 10.0 mi SW 3.5 mph - N/A   Overcast
9:53 PM 34.0 °F 27.2 °F 25.0 °F 70% 29.91 in 10.0 mi WSW 8.1 mph - N/A   Overcast
10:53 PM 33.1 °F 26.1 °F 24.1 °F 70% 29.91 in 10.0 mi WSW 8.1 mph - N/A   Overcast
11:53 PM 32.0 °F 27.5 °F 25.0 °F 75% 29.90 in 10.0 mi WSW 4.6 mph - N/A   Overcast